[[{"header":{"parameterUnit":"m.s-1","parameterCategory":1,"la1":30.2991,"la2":30.254,"lo1":-89.0895,"lo2":-89.0444,"dy":0.0017,"dx":0.0017,"nx":28,"ny":28,"refTime":"2024-04-26T03:00:00:Z","depth":0,"parameterNumber":2,"parameterNumberName":"U-component_of_WINDS"},"data":[0,0,0,0,0,0,0,0,0,0,0,0,0,0,0,0,0,0,0,0,0,0,0,0,0,0,0,0,0,0,0,0,0,0,0,0,0,0,0,0,0,0,0,0,0,0,0,0,0,0,0,0,0,0,0,0,0,0,-5.853,-5.8531,0,-5.8646,-5.8648,-5.8649,-5.8614,-5.8611,-5.8609,-5.8606,-5.8726,-5.8731,-5.8737,0,0,0,0,0,0,0,0,0,0,0,0,0,-5.8277,-5.8282,-5.853,-5.8531,-5.8533,-5.8646,-5.8648,-5.8649,-5.8614,-5.8611,-5.8608,-5.8605,-5.8724,-5.8731,-5.8737,0,0,0,0,0,0,0,0,0,0,0,0,0,-5.839,-5.8284,-5.853,-5.8529,-5.853,-5.8646,-5.8648,-5.865,-5.8615,-5.8611,-5.8607,-5.8604,-5.8722,-5.873,-5.8738,-5.8862,0,0,-5.8763,-5.8766,0,0,0,0,0,0,0,0,-5.8383,-5.8399,-5.8528,-5.8529,-5.8531,-5.8612,-5.8602,-5.8721,-5.8616,-5.8583,-5.8606,-5.8602,-5.8691,-5.8701,-5.8731,-5.8867,-5.8872,-5.8764,-5.8769,-5.8772,-5.8774,0,0,0,0,0,0,0,-5.8376,-5.8394,-5.8576,-5.8529,-5.8531,-5.8523,-5.8535,-5.8625,-5.8656,-5.8585,-5.8583,-5.8597,-5.8691,-5.8723,-5.8734,-5.8874,-5.8763,-5.8771,-5.8776,-5.8779,-5.9116,-5.912,0,0,0,0,0,0,-5.8367,-5.8387,-5.8572,-5.8579,-5.8446,-5.853,-5.8544,-5.8589,-5.8655,-5.8661,-5.86,-5.8595,-5.8711,-5.8724,-5.8738,-5.8885,-5.8772,-5.878,-5.8784,-5.9112,-5.9117,-5.9121,0,0,0,0,0,0,-5.8361,-5.8384,-5.8568,-5.8483,-5.8506,-5.8539,-5.859,-5.8594,-5.8626,-5.8666,-5.8671,-5.8627,-5.8709,-5.8726,-5.8831,-5.8889,-5.8783,-5.8791,-5.9107,-5.9114,-5.9119,-5.9182,0,0,0,0,0,0,-5.8354,-5.8382,-5.8429,-5.8484,-5.851,-5.8659,-5.8594,-5.8599,-5.864,-5.8635,-5.8693,-5.8699,-5.8707,-5.8819,-5.8839,-5.8898,-5.8797,-5.9102,-5.911,-5.9117,-5.9174,-5.9189,-5.9202,0,0,0,0,0,-5.8345,-5.8442,-5.8432,-5.8454,-5.857,-5.8662,-5.8677,-5.8684,-5.8645,-5.8692,-5.8718,-5.8697,-5.888,-5.883,-5.8852,-5.8915,-5.9098,-5.9108,-5.9117,-5.9168,-5.9186,-5.9201,0,0,0,0,0,0,-5.8393,-5.845,-5.8438,-5.8556,-5.8604,-5.8656,-5.8716,-5.8703,-5.8764,-5.8756,-5.8762,-5.8776,-5.8883,-5.891,-5.8853,-5.9037,-5.8983,-5.8997,-5.9015,-5.9032,-5.9046,-5.9035,-5.8804,0,0,0,0,0,-5.8418,-5.8487,-5.8533,-5.8633,-5.8658,-5.8683,-5.8723,-5.8725,-5.8775,-5.8795,-5.8829,-5.8879,-5.8947,-5.8992,-5.9057,-5.9179,-5.919,-5.9234,-5.9247,-5.9258,-5.9269,-5.9334,-5.9353,-5.9151,-5.9151,-5.9151,0,0,-5.8468,-5.8508,-5.8551,-5.8643,-5.8681,-5.8752,-5.87,-5.8779,-5.8832,-5.8807,-5.8907,-5.8934,-5.899,-5.9103,-5.9155,-5.9129,-5.9328,-5.927,-5.9278,-5.9283,-5.9345,-5.9364,-5.9381,-5.9157,-5.9156,-5.9155,0,0,-5.8596,-5.8634,-5.872,-5.8759,-5.8817,-5.8833,-5.8854,-5.8908,-5.8924,-5.9025,-5.9007,-5.9071,-5.919,-5.9229,-5.9265,-5.941,-5.9392,-5.9431,-5.9501,-5.9564,-5.958,-5.9594,-5.9643,-5.9661,-5.9443,-5.9443,-5.9443,0,-5.8652,-5.8759,-5.8766,-5.8846,-5.8886,-5.8868,-5.8955,-5.8992,-5.9069,-5.9097,-5.9067,-5.9214,-5.9251,-5.9372,-5.9407,-5.9438,-5.9461,-5.9423,-5.9577,-5.9591,-5.9604,-5.9651,-5.967,-5.9447,-5.9447,-5.9446,-5.9446,0,-5.8823,-5.8898,-5.8961,-5.9034,-5.9082,-5.9165,-5.9184,-5.9232,-5.923,-5.925,-5.9352,-5.9395,-5.9468,-5.9498,-5.9497,-5.962,-5.9601,-5.9575,-5.952,-5.9627,-5.9671,-5.9689,-5.9453,-5.9452,-5.945,-5.9449,0,0,-5.8982,-5.9059,-5.9082,-5.9114,-5.9177,-5.9235,-5.9317,-5.9388,-5.9428,-5.9482,-5.955,-5.9651,-5.9626,-5.9667,-5.9671,-5.9727,-5.9835,-5.9693,-5.9694,-5.9715,-5.9971,-5.9988,-6.0008,-5.9826,-5.9829,-5.9832,-5.9965,0,-5.9113,-5.9257,-5.9266,-5.9396,-5.9464,-5.9449,-5.952,-5.9566,-5.9587,-5.9648,-5.9672,-5.9742,-5.9705,-5.973,-5.9785,-5.9811,-5.9886,-5.9802,-5.9887,-5.989,-5.987,-6.0032,-6.0051,-6.0174,-5.9982,-5.9985,-5.9987,0,-5.9285,-5.9343,-5.948,-5.9532,-5.9561,-5.9625,-5.969,-5.975,-5.9802,-5.9813,-5.9859,-5.9855,-5.9939,-5.9884,-5.9999,-5.9941,-5.9977,-5.9995,-6.0,-6.0006,-5.9943,-6.0039,-6.0213,-6.023,-6.0015,-6.0013,-6.0011,0,-5.9384,-5.9497,-5.9592,-5.9621,-5.9685,-5.973,-5.9759,-5.9808,-5.985,-5.9908,-5.9935,-6.0002,-6.0038,-6.0091,-6.0105,-6.0064,-6.0219,-6.0165,-6.0229,-6.0228,-6.0259,-6.0256,-6.0439,-6.0288,-6.0288,-6.0288,-6.0287,0,-5.9527,-5.9611,-5.9637,-5.9696,-5.9789,-5.9799,-5.9891,-5.9917,-5.9961,-6.0024,-6.0016,-6.0075,-6.0092,-6.0154,-6.0166,-6.0258,-6.0276,-6.0286,-6.0287,-6.0285,-6.0283,-6.0306,-6.0296,-6.0293,-6.0292,-6.0291,-6.029,0,-5.9652,-5.9673,-5.9776,-5.9828,-5.9844,-5.9909,-5.9954,-6.001,-6.0031,-6.0111,-6.013,-6.0162,-6.0235,-6.0255,-6.0343,-6.0351,-6.0458,-6.0454,-6.044,-6.0439,-6.05,-6.0493,-6.0701,-6.0727,-6.0563,-6.0564,-6.0566,0,-5.974,-5.9804,-5.9863,-5.9904,-5.9935,-6.0002,-6.0045,-6.0058,-6.0103,-6.0167,-6.0216,-6.0288,-6.0345,-6.0463,-6.0494,-6.0561,-6.0556,-6.0624,-6.0565,-6.056,-6.0553,-6.0548,-6.0553,-6.0634,-6.0636,-6.0637,-6.0638,0,-5.9894,-5.9901,-5.9963,-6.0028,-6.0079,-6.0132,-6.0182,-6.0217,-6.0238,-6.0288,-6.0363,-6.0408,-6.0497,-6.0568,-6.0636,-6.0666,-6.0655,-6.0657,-6.0675,-6.0671,-6.0659,-6.0663,-6.0467,-6.0651,-6.065,-6.0649,-6.0648,-6.0648,-6.0001,-6.0056,-6.0106,-6.0174,-6.0214,-6.0261,-6.0316,-6.0343,-6.0405,-6.0478,-6.0483,-6.0563,-6.0614,-6.0704,-6.0737,-6.08,-6.0779,-6.0806,-6.0812,-6.0817,-6.0821,-6.0652,-6.0813,-6.0813,-6.0812,-6.0812,-6.0812,0,-6.0151,-6.0183,-6.0246,-6.0316,-6.037,-6.0357,-6.0412,-6.0458,-6.0528,-6.0576,-6.0633,-6.0718,-6.0787,-6.0824,-6.0893,-6.0936,-6.0932,-6.0953,-6.0948,-6.0955,-6.0837,-6.0813,-6.0954,-6.0954,-6.0954,-6.0954,-6.0954,-6.0954,-6.0235,-6.0327,-6.0341,-6.0452,-6.0483,-6.0561,-6.0593,-6.0636,-6.0674,-6.0769,-6.0827,-6.085,-6.0894,-6.0965,-6.1028,-6.1037,-6.1061,-6.1084,-6.109,-6.0978,-6.0963,-6.0949,-6.0927,-6.109,-6.109,-6.1202,-6.1203,-6.1204]},{"header":{"parameterUnit":"m.s-1","parameterCategory":1,"la1":30.2991,"la2":30.254,"lo1":-89.0895,"lo2":-89.0444,"dy":0.0017,"dx":0.0017,"nx":28,"ny":28,"refTime":"2024-04-26T03:00:00:Z","depth":0,"parameterNumber":3,"parameterNumberName":"V-component_of_WINDS"},"data":[0,0,0,0,0,0,0,0,0,0,0,0,0,0,0,0,0,0,0,0,0,0,0,0,0,0,0,0,0,0,0,0,0,0,0,0,0,0,0,0,0,0,0,0,0,0,0,0,0,0,0,0,0,0,0,0,0,0,2.5692,2.5693,0,2.5805,2.5806,2.5808,2.5839,2.5838,2.5838,2.5837,2.5951,2.5955,2.5959,0,0,0,0,0,0,0,0,0,0,0,0,0,2.5502,2.5505,2.5692,2.5693,2.5694,2.5805,2.5806,2.5808,2.5839,2.5838,2.5838,2.5837,2.595,2.5955,2.5959,0,0,0,0,0,0,0,0,0,0,0,0,0,2.5596,2.5506,2.5691,2.5723,2.5727,2.5805,2.5807,2.5808,2.5839,2.5838,2.5837,2.5837,2.5949,2.5954,2.5959,2.6012,0,0,2.5976,2.5979,0,0,0,0,0,0,0,0,2.5591,2.5603,2.5717,2.5721,2.5726,2.5807,2.5781,2.5877,2.584,2.5797,2.5837,2.5836,2.5904,2.5913,2.5936,2.6018,2.6023,2.5977,2.598,2.5982,2.5984,0,0,0,0,0,0,0,2.5584,2.5599,2.5736,2.5719,2.5724,2.5732,2.5744,2.58,2.5854,2.58,2.5803,2.5816,2.5906,2.5931,2.5939,2.6024,2.5976,2.5981,2.5985,2.5987,2.6157,2.6158,0,0,0,0,0,0,2.5572,2.5593,2.5733,2.574,2.5655,2.5736,2.575,2.5782,2.5854,2.5864,2.5817,2.5817,2.5922,2.5933,2.5943,2.6012,2.5982,2.5987,2.599,2.6156,2.6157,2.6158,0,0,0,0,0,0,2.5568,2.5585,2.5728,2.5667,2.5686,2.574,2.5776,2.5785,2.581,2.5866,2.5876,2.5832,2.5922,2.5936,2.5996,2.6016,2.599,2.5995,2.6154,2.6156,2.6158,2.6147,0,0,0,0,0,0,2.5563,2.5583,2.5604,2.5667,2.5689,2.5779,2.5777,2.5788,2.5819,2.5821,2.5883,2.5893,2.5922,2.5987,2.6001,2.6023,2.5999,2.6153,2.6155,2.6157,2.6146,2.6149,2.6151,0,0,0,0,0,2.5556,2.5595,2.5604,2.5621,2.5716,2.578,2.5792,2.5826,2.5821,2.5842,2.5879,2.5891,2.6011,2.5993,2.6009,2.6033,2.6151,2.6154,2.6157,2.6145,2.6148,2.6151,0,0,0,0,0,0,2.5531,2.5604,2.5615,2.5676,2.5722,2.5785,2.5813,2.5828,2.5875,2.5874,2.5913,2.5927,2.5985,2.6015,2.5993,2.6089,2.6082,2.6088,2.6067,2.6071,2.6073,2.6065,2.6004,0,0,0,0,0,2.5533,2.5579,2.564,2.5688,2.571,2.5758,2.5786,2.5809,2.5857,2.5876,2.5917,2.5963,2.6012,2.6043,2.609,2.6151,2.6165,2.6175,2.6177,2.6179,2.6184,2.6219,2.6225,2.6168,2.6168,2.6168,0,0,2.5537,2.5582,2.5609,2.5684,2.5722,2.5769,2.5773,2.5822,2.5857,2.5883,2.5943,2.5975,2.6029,2.609,2.6118,2.6116,2.6203,2.6182,2.6183,2.6187,2.6223,2.6228,2.6233,2.617,2.6169,2.6169,0,0,2.5568,2.5607,2.5652,2.5691,2.5748,2.578,2.5791,2.5852,2.5875,2.5935,2.5956,2.5998,2.6081,2.6119,2.6149,2.6197,2.6211,2.6212,2.6224,2.6258,2.6263,2.6267,2.6285,2.6291,2.6216,2.6216,2.6216,0,2.5566,2.5637,2.5673,2.5722,2.5755,2.5782,2.5829,2.5864,2.5934,2.5956,2.5953,2.6058,2.6096,2.6167,2.6179,2.6202,2.6216,2.6205,2.6259,2.6264,2.6268,2.6286,2.6293,2.6216,2.6216,2.6216,2.6216,0,2.5632,2.5682,2.5711,2.578,2.5816,2.5863,2.5907,2.5939,2.5959,2.5991,2.6053,2.61,2.6158,2.6177,2.6195,2.6251,2.6248,2.6251,2.6245,2.6273,2.629,2.6297,2.6216,2.6216,2.6216,2.6216,0,0,2.5651,2.574,2.575,2.5782,2.5849,2.5887,2.5936,2.5994,2.6022,2.607,2.6112,2.6182,2.6187,2.6221,2.6244,2.6274,2.6311,2.6275,2.6277,2.6281,2.6377,2.6374,2.6381,2.632,2.6322,2.6323,2.6373,0,2.5691,2.578,2.5815,2.5887,2.5934,2.5961,2.6004,2.6049,2.6081,2.6125,2.6159,2.6209,2.621,2.6232,2.6263,2.63,2.6331,2.6297,2.6361,2.6362,2.6347,2.639,2.6388,2.6432,2.6379,2.6381,2.6382,0,2.575,2.58,2.5878,2.594,2.5961,2.5999,2.6056,2.6098,2.615,2.6171,2.621,2.6232,2.6285,2.6275,2.6349,2.6325,2.6353,2.6376,2.6378,2.6386,2.6374,2.64,2.6447,2.6454,2.6392,2.6392,2.6391,0,2.5758,2.5844,2.5902,2.5928,2.6002,2.6028,2.606,2.6112,2.6145,2.6195,2.6217,2.6272,2.6302,2.6344,2.638,2.637,2.6451,2.6444,2.647,2.6469,2.6486,2.6485,2.6539,2.6503,2.6503,2.6503,2.6503,0,2.58,2.5846,2.5906,2.5942,2.5995,2.6035,2.6087,2.612,2.6166,2.6209,2.6235,2.6275,2.632,2.6366,2.6395,2.6452,2.6465,2.6484,2.6491,2.6482,2.648,2.6501,2.6499,2.6505,2.6504,2.6504,2.6504,0,2.5817,2.5859,2.5924,2.5989,2.6007,2.6043,2.6099,2.6135,2.6168,2.6222,2.6237,2.6289,2.6344,2.6385,2.6456,2.6475,2.6537,2.6544,2.6519,2.6523,2.6548,2.6545,2.6618,2.663,2.6585,2.6585,2.6586,0,2.5841,2.5878,2.5948,2.5979,2.6011,2.606,2.6095,2.6136,2.6171,2.6234,2.6263,2.632,2.6368,2.6455,2.6499,2.6554,2.6563,2.6585,2.6571,2.6562,2.6565,2.6562,2.6567,2.6587,2.6587,2.6587,2.6587,0,2.5881,2.59,2.595,2.6007,2.6048,2.6094,2.6141,2.6165,2.6214,2.6252,2.631,2.6347,2.6421,2.6478,2.6537,2.657,2.6587,2.6592,2.6601,2.6592,2.6577,2.6587,2.6526,2.659,2.6589,2.6589,2.6589,2.6589,2.5903,2.5938,2.5993,2.6047,2.6087,2.6131,2.6169,2.6207,2.6256,2.632,2.6341,2.64,2.6453,2.6535,2.6569,2.6616,2.6616,2.6629,2.6632,2.6635,2.6635,2.6569,2.6627,2.6627,2.6627,2.6627,2.6627,0,2.5945,2.5982,2.6032,2.6098,2.6141,2.6154,2.6208,2.6243,2.6295,2.6343,2.6391,2.6457,2.6513,2.6562,2.662,2.6648,2.6658,2.6662,2.6661,2.6669,2.6631,2.6618,2.6654,2.6654,2.6654,2.6654,2.6654,2.6654,2.5972,2.6032,2.6058,2.6138,2.6175,2.6235,2.6264,2.6305,2.6344,2.6417,2.6464,2.6496,2.6545,2.6607,2.6659,2.6672,2.6692,2.6695,2.671,2.6674,2.6671,2.6668,2.6656,2.6699,2.6699,2.6743,2.6744,2.6744]}]]